Content
SEND FEEDBACK

Daily
Averages
Monthly
Summary
United States of America

BARRINGTON, ILLINOIS


Home > North America > United States > Illinois
Elevation: 810 feet     Latitude: 42 10N     Longitude: 088 09W

WEATHER
 
SELECT A DAY
Number of Records: 196,809;   Date Range: 1/1/95 - 9/20/14
 
SHARE

PRINT THIS DATA

[ ← Previous Day ]
WEATHER ALMANAC - MAY 19, 2013
[ Next Day → ]
[ °C ]   °F
Weather ElementAverageHighLow
Temperature74.4 °F86 °F (4:51 pm)57.9 °F (3:51 am)
Dewpoint61.1 °F64 °F (9:51 am)55 °F (3:51 am)
Humidity65 %90 % (3:51 am)46 % (4:51 pm)
Barometer29.86 in29.95 in (6:51 am)29.76 in (4:51 pm)
Wind Speed7.1 mph15 mph (12:51 pm)
Wind Gust20.7 mph (1:51 pm)
Weather ElementAverage
Visibility9.6 mi
Wind DirectionE (87.4 °)

Weather ElementTotal
Precipitation---
Cooling Degree Days7 (Base 65)
Growing Degree Days22 (Base 50)
Averaged from 23 records on May 19, 2013
WEATHER CONDITIONS BREAKOUT
WIND DIRECTION BREAKOUT
WEATHER BY HOUR - MAY 19, 2013
[ °C ]   °F
Local TimeTemperatureDewpointHumidityBarometerVisibilityWind DirectionWind SpeedGust SpeedPrecipitationEventsConditions
1:51 AM62.1 °F55.9 °F80 %29.94 in10.0 miCalmClear
2:51 AM60.8 °F55.4 °F82 %29.94 in10.0 miCalmClear
3:51 AM57.9 °F55.0 °F90 %29.93 in10.0 miEast (100°)3.5 mphClear
4:51 AM60.1 °F55.9 °F86 %29.93 in10.0 miCalmScattered Clouds
5:51 AM60.1 °F55.9 °F86 %29.93 in10.0 miCalmMostly Cloudy
6:51 AM64.0 °F61.0 °F90 %29.95 in6.0 miCalmMostly Cloudy
7:51 AM68.0 °F62.1 °F81 %29.93 in6.0 miSE (130°)4.6 mphHaze
8:51 AM71.1 °F63.0 °F75 %29.95 in8.0 miCalmMostly Cloudy
9:51 AM75.0 °F64.0 °F69 %29.93 in10.0 miCalmMostly Cloudy
10:51 AM79.0 °F64.0 °F60 %29.92 in10.0 miSE (130°)6.9 mphMostly Cloudy
11:51 AM81.0 °F64.0 °F56 %29.90 in10.0 miVariable5.8 mphMostly Cloudy
12:51 PM82.0 °F63.0 °F52 %29.86 in10.0 miEast (100°)15.0 mphMostly Cloudy
1:51 PM81.0 °F64.0 °F56 %29.85 in10.0 miSE (140°)13.8 mph20.7 mphMostly Cloudy
2:51 PM84.9 °F63.0 °F48 %29.83 in10.0 miSouth (170°)11.5 mph20.7 mphMostly Cloudy
3:51 PM84.9 °F63.0 °F48 %29.81 in10.0 miSouth (190°)12.7 mphMostly Cloudy
4:51 PM86.0 °F63.0 °F46 %29.76 in10.0 miSSE (160°)15.0 mphMostly Cloudy
5:51 PM84.9 °F62.1 °F46 %29.77 in10.0 miSouth (170°)12.7 mphScattered Clouds
6:51 PM82.9 °F62.1 °F49 %29.76 in10.0 miEast (100°)9.2 mphMostly Cloudy
7:51 PM78.1 °F61.0 °F56 %29.78 in10.0 miEast (90°)9.2 mphMostly Cloudy
8:51 PM75.0 °F61.0 °F62 %29.78 in10.0 miEast (90°)9.2 mphMostly Cloudy
9:51 PM78.1 °F61.0 °F56 %29.78 in10.0 miSE (130°)10.4 mphOvercast
10:51 PM77.0 °F62.1 °F60 %29.77 in10.0 miSE (140°)10.4 mphOvercast
11:51 PM78.1 °F64.0 °F62 %29.76 in10.0 miSouth (170°)13.8 mphOvercast
Hourly data recorded from KORD, located miles away from Barrington, Illinois







STORIES FROM OUR PARTNERS